| time (UTC) | temp F | wind direction | speed knots | gust knots | rain 1hr in | rain 24hr in | rain mn in | humidity % | barometer mb |
| 20260505124532 | 35 | 269 | 0.0 | 2.6 | 0.00 | 0.00 | 0.00 | 93 | 1012.9 |
| 20260505123046 | 36 | 0 | 0.0 | 3.5 | 0.00 | 0.00 | 0.00 | 93 | 1012.7 |
| 20260505121534 | 36 | 0 | 0.0 | 2.6 | 0.00 | 0.00 | 0.00 | 93 | 1012.9 |
| 20260505120041 | 37 | 255 | 0.0 | 2.6 | 0.00 | 0.00 | 0.00 | 93 | 1012.8 |
| 20260505114545 | 38 | 0 | 0.0 | 2.6 | 0.00 | 0.00 | 0.00 | 93 | 1012.6 |
| 20260505113028 | 39 | 0 | 0.0 | 3.5 | 0.00 | 0.00 | 0.00 | 93 | 1012.4 |
| 20260505111528 | 40 | 0 | 0.0 | 1.7 | 0.00 | 0.00 | 0.00 | 93 | 1012.2 |
| 20260505101530 | 43 | 5 | 0.0 | 0.9 | 0.00 | 0.00 | 0.00 | 94 | 1011.1 |
| 20260505100031 | 42 | 0 | 0.0 | 0.0 | 0.00 | 0.00 | 0.00 | 94 | 1011.0 |
| 20260505094530 | 43 | 0 | 0.0 | 0.0 | 0.00 | 0.00 | 0.00 | 94 | 1011.1 |
| 20260505093032 | 43 | 0 | 0.0 | 0.0 | 0.00 | 0.00 | 0.00 | 94 | 1011.0 |
| 20260505091539 | 43 | 0 | 0.0 | 0.0 | 0.00 | 0.00 | 0.00 | 94 | 1011.3 |
| 20260505090043 | 43 | 0 | 0.0 | 0.0 | 0.00 | 0.00 | 0.00 | 94 | 1011.2 |
| 20260505084529 | 43 | 0 | 0.0 | 0.0 | 0.00 | 0.00 | 0.00 | 93 | 1011.0 |
| 20260505083030 | 44 | 0 | 0.0 | 0.0 | 0.00 | 0.00 | 0.00 | 93 | 1011.1 |
| 20260505081537 | 44 | 0 | 0.0 | 0.0 | 0.00 | 0.00 | 0.00 | 93 | 1011.6 |
| 20260505080046 | 45 | 0 | 0.0 | 0.0 | 0.00 | 0.00 | 0.00 | 93 | 1011.9 |
| 20260505074528 | 45 | 0 | 0.0 | 0.0 | 0.00 | 0.00 | 0.00 | 93 | 1011.9 |
| 20260505073034 | 45 | 0 | 0.0 | 0.0 | 0.00 | 0.00 | 0.00 | 93 | 1012.3 |
| 20260505071532 | 45 | 0 | 0.0 | 0.0 | 0.00 | 0.00 | 0.00 | 93 | 1012.3 |
| 20260505070032 | 44 | 0 | 0.0 | 0.0 | 0.00 | 0.00 | 0.00 | 93 | 1012.6 |
| 20260505064528 | 44 | 0 | 0.0 | 0.0 | 0.00 | 0.00 | 0.00 | 93 | 1012.8 |
| 20260505063033 | 44 | 0 | 0.0 | 0.0 | 0.00 | 0.00 | 0.00 | 93 | 1012.9 |
| 20260505061530 | 44 | 0 | 0.0 | 0.0 | 0.00 | 0.00 | 0.00 | 93 | 1012.8 |
| 20260505060034 | 45 | 0 | 0.0 | 0.0 | 0.00 | 0.00 | 0.00 | 93 | 1012.7 |
| 20260505054532 | 45 | 0 | 0.0 | 0.0 | 0.00 | 0.00 | 0.00 | 92 | 1013.0 |
| 20260505053028 | 45 | 0 | 0.0 | 0.0 | 0.00 | 0.00 | 0.00 | 92 | 1012.3 |
| 20260505051528 | 45 | 0 | 0.0 | 0.0 | 0.00 | 0.00 | 0.00 | 92 | 1012.7 |
| 20260505041545 | 46 | 0 | 0.0 | 0.0 | 0.00 | 0.00 | 0.00 | 89 | 1013.1 |
| 20260505040030 | 47 | 0 | 0.0 | 0.0 | 0.00 | 0.00 | 0.00 | 87 | 1012.9 |
| 20260505034528 | 48 | 0 | 0.0 | 0.9 | 0.00 | 0.00 | 0.00 | 82 | 1012.8 |
| 20260505033028 | 50 | 0 | 0.0 | 0.9 | 0.00 | 0.00 | 0.00 | 75 | 1012.7 |
| 20260505031536 | 50 | 0 | 0.0 | 0.9 | 0.00 | 0.00 | 0.00 | 68 | 1012.3 |
| 20260505030035 | 51 | 0 | 0.0 | 0.0 | 0.00 | 0.00 | 0.00 | 66 | 1012.1 |
| 20260505024530 | 51 | 0 | 0.0 | 0.0 | 0.00 | 0.00 | 0.00 | 63 | 1012.0 |
| 20260505023039 | 51 | 0 | 0.0 | 0.0 | 0.00 | 0.00 | 0.00 | 60 | 1011.7 |
| 20260505021529 | 52 | 0 | 0.0 | 0.0 | 0.00 | 0.00 | 0.00 | 59 | 1011.5 |
| 20260505020034 | 52 | 0 | 0.0 | 0.0 | 0.00 | 0.00 | 0.00 | 58 | 1011.5 |
| 20260505014538 | 53 | 0 | 0.0 | 0.0 | 0.00 | 0.00 | 0.00 | 58 | 1011.3 |
| 20260505013033 | 53 | 0 | 0.0 | 0.9 | 0.00 | 0.00 | 0.00 | 58 | 1011.2 |
| 20260505011532 | 54 | 0 | 0.0 | 1.7 | 0.00 | 0.00 | 0.00 | 55 | 1011.2 |
| 20260505010028 | 56 | 274 | 0.9 | 3.5 | 0.00 | 0.00 | 0.00 | 47 | 1011.2 |
| 20260505004537 | 57 | 255 | 0.9 | 4.3 | 0.00 | 0.00 | 0.00 | 45 | 1011.0 |
| 20260505003030 | 58 | 0 | 0.0 | 0.9 | 0.00 | 0.00 | 0.00 | 40 | 1010.9 |
| 20260505001530 | 59 | 0 | 0.0 | 1.7 | 0.00 | 0.00 | 0.00 | 38 | 1010.6 |
| 20260505000039 | 60 | 304 | 0.0 | 1.7 | 0.00 | 0.00 | 0.00 | 35 | 1010.2 |
| 20260504234528 | 61 | 0 | 0.0 | 1.7 | 0.00 | 0.00 | 0.00 | 34 | 1010.1 |
| 20260504233032 | 61 | 338 | 0.0 | 0.9 | 0.00 | 0.00 | 0.00 | 33 | 1010.0 |
| 20260504231530 | 62 | 344 | 0.9 | 4.3 | 0.00 | 0.00 | 0.00 | 32 | 1009.9 |
| 20260504230030 | 63 | 141 | 0.9 | 5.2 | 0.00 | 0.00 | 0.00 | 31 | 1008.9 |
| 20260504224530 | 65 | 0 | 0.0 | 2.6 | 0.00 | 0.00 | 0.00 | 29 | 1008.7 |
| 20260504223034 | 67 | 0 | 0.0 | 1.7 | 0.00 | 0.00 | 0.00 | 24 | 1008.4 |
| 20260504221532 | 65 | 0 | 0.0 | 0.9 | 0.00 | 0.00 | 0.00 | 24 | 1008.7 |
| 20260504220030 | 65 | 0 | 0.0 | 0.9 | 0.00 | 0.00 | 0.00 | 25 | 1008.7 |
| 20260504214531 | 65 | 214 | 0.0 | 1.7 | 0.00 | 0.00 | 0.00 | 25 | 1008.7 |
| 20260504213052 | 66 | 252 | 0.9 | 2.6 | 0.00 | 0.00 | 0.00 | 25 | 1009.0 |
| 20260504211530 | 66 | 307 | 0.9 | 2.6 | 0.00 | 0.00 | 0.00 | 26 | 1009.0 |
| 20260504210032 | 67 | 296 | 0.0 | 3.5 | 0.00 | 0.00 | 0.00 | 25 | 1009.3 |
| 20260504204531 | 68 | 0 | 0.0 | 2.6 | 0.00 | 0.00 | 0.00 | 24 | 1009.2 |
| 20260504203031 | 66 | 238 | 0.9 | 2.6 | 0.00 | 0.00 | 0.00 | 26 | 1009.2 |
| 20260504201534 | 67 | 302 | 0.9 | 2.6 | 0.00 | 0.00 | 0.00 | 25 | 1009.5 |
| 20260504200030 | 66 | 19 | 0.9 | 2.6 | 0.00 | 0.00 | 0.00 | 26 | 1009.5 |
| 20260504194534 | 66 | 278 | 0.9 | 2.6 | 0.00 | 0.00 | 0.00 | 24 | 1009.5 |
| 20260504193034 | 67 | 0 | 0.9 | 2.6 | 0.00 | 0.00 | 0.00 | 24 | 1009.4 |
| 20260504191529 | 66 | 252 | 0.9 | 3.5 | 0.00 | 0.00 | 0.00 | 25 | 1009.4 |
| 20260504190031 | 67 | 121 | 0.9 | 4.3 | 0.00 | 0.00 | 0.00 | 24 | 1009.2 |
| 20260504184533 | 66 | 0 | 0.0 | 4.3 | 0.00 | 0.00 | 0.00 | 24 | 1009.2 |
| 20260504183030 | 67 | 107 | 0.0 | 2.6 | 0.00 | 0.00 | 0.00 | 19 | 1009.2 |
| 20260504181532 | 67 | 0 | 0.0 | 0.9 | 0.00 | 0.00 | 0.00 | 22 | 1009.4 |
| 20260504180030 | 68 | 0 | 0.9 | 3.5 | 0.00 | 0.00 | 0.00 | 20 | 1009.4 |
| 20260504174530 | 68 | 296 | 0.9 | 2.6 | 0.00 | 0.00 | 0.00 | 20 | 1009.8 |
| 20260504173036 | 68 | 263 | 0.0 | 2.6 | 0.00 | 0.00 | 0.00 | 21 | 1010.1 |
| 20260504171532 | 66 | 0 | 0.9 | 3.5 | 0.00 | 0.00 | 0.00 | 22 | 1010.3 |